GFSNW_925_spd_006.txt.gz
Wind_Speed
6 9 13 16 19 13 4 3 3 7 7 4 1 2 2 1 3 5 4 5 4 3 4 4 3 2 3 2 0 2 3 4 3 5 8 2 2 3 5 3 5 3 3 10
4 7 9 12 17 20 3 3 1 5 4 3 2 2 4 4 4 5 4 3 3 3 3 3 3 2 3 3 2 3 0 2 3 7 6 8 4 8 4 3 2 6 3 6
2 5 8 10 12 15 3 3 3 4 4 1 6 4 2 3 4 4 4 2 4 5 4 4 1 6 4 2 1 5 6 3 6 5 5 3 9 15 11 3 2 5 13 16
1 4 7 8 10 11 2 3 2 4 2 5 5 4 1 4 2 2 3 5 6 3 2 4 2 3 5 5 2 1 4 5 4 7 8 5 16 17 16 11 14 6 10 10
1 3 6 7 9 5 5 3 3 4 1 2 5 5 3 2 4 3 3 5 2 6 3 3 2 1 0 5 3 2 2 4 4 11 7 8 17 15 13 13 14 9 9 14
2 4 6 8 10 4 5 3 3 4 4 2 4 2 2 2 5 2 5 5 3 4 1 5 5 5 5 7 6 3 2 3 2 6 5 5 10 8 6 5 7 7 6 6
3 3 5 7 10 12 7 5 4 4 2 3 3 2 3 4 3 4 2 4 5 5 3 3 5 5 4 4 8 7 5 3 2 3 1 4 9 6 7 6 8 6 3 5
4 3 4 5 7 8 10 6 3 3 1 2 4 1 1 3 2 1 2 1 4 8 7 4 6 5 7 5 5 3 4 4 1 1 2 7 11 10 2 2 8 5 5 7
6 3 3 3 5 5 8 12 5 5 5 4 1 1 2 2 0 5 2 3 6 7 4 4 3 2 4 5 5 4 6 5 3 2 4 5 8 5 3 3 6 6 4 7
9 5 2 1 2 4 5 5 6 4 3 4 2 3 4 5 2 2 3 3 2 3 3 2 4 4 2 3 4 3 3 2 3 1 6 8 9 7 1 4 8 5 5 12
13 10 6 4 2 1 3 4 4 3 2 4 1 1 3 1 2 4 3 4 4 3 3 3 4 4 5 1 4 5 5 3 4 3 3 8 0 3 2 6 4 12 16 10
16 14 11 8 5 3 2 3 4 2 3 3 3 7 7 6 7 5 1 5 4 5 3 2 2 3 2 4 5 1 3 7 4 8 7 4 3 12 6 7 16 10 5 3
19 17 15 13 10 7 6 4 5 3 3 4 2 4 5 10 10 9 4 3 4 4 4 4 3 4 3 5 5 3 4 4 6 6 7 11 11 19 18 10 5 3 4 5
21 20 18 16 14 11 12 7 6 5 5 3 6 4 9 10 12 13 15 13 5 2 2 3 3 3 5 5 6 7 6 5 5 14 17 19 15 13 6 5 3 3 3 6
22 21 20 18 15 15 14 13 11 9 4 3 3 10 8 7 9 10 13 13 3 2 1 2 4 3 2 2 1 4 6 16 7 14 16 13 16 4 4 6 7 11 7 10
20 19 19 18 16 14 8 2 15 22 16 1 2 4 4 10 17 20 14 12 4 4 3 3 3 4 4 4 4 6 10 12 17 17 19 12 7 6 3 2 9 11 10 14
19 19 16 16 16 18 6 4 2 13 20 2 3 3 3 3 3 1 3 1 3 4 3 4 3 4 4 2 12 23 12 10 14 14 10 6 8 5 8 7 13 12 11 11
16 16 15 14 13 12 5 6 9 13 5 2 2 2 3 2 1 2 5 2 2 2 2 1 2 2 1 4 17 10 8 9 8 3 8 6 3 5 7 10 14 7 6 5
12 11 11 10 4 4 3 8 9 9 3 3 2 3 3 2 1 1 2 2 2 1 1 2 2 1 5 6 5 8 7 5 7 8 6 3 3 7 9 10 5 5 6 6
17 9 4 2 1 8 11 3 2 2 3 2 2 1 3 3 1 1 0 1 2 2 3 1 2 5 10 16 16 15 4 7 6 7 3 2 4 6 6 6 5 5 6 11
3 3 2 8 10 1 3 1 2 1 1 2 1 3 2 1 2 2 1 1 0 2 4 3 2 3 5 6 4 6 7 9 6 6 5 5 5 6 7 8 10 13 12 8
7 14 9 4 1 2 1 2 0 2 3 3 2 3 2 1 2 2 2 2 1 5 1 1 3 3 8 6 7 6 7 7 4 6 6 7 8 11 9 10 12 15 16 17
7 5 3 3 0 2 5 6 3 3 2 3 1 2 2 2 2 2 2 2 4 1 0 3 4 4 4 3 3 3 4 4 3 6 7 8 12 17 11 12 17 18 17 17
3 3 3 3 2 3 3 2 3 1 1 2 3 2 2 1 2 2 3 4 3 2 3 5 2 3 6 6 4 5 7 8 9 11 13 15 17 19 15 11 13 15 17 22
2 3 3 3 2 1 1 1 1 1 1 2 2 2 2 1 2 1 1 2 3 3 4 3 3 3 4 6 6 7 6 7 8 15 13 18 21 18 21 19 16 17 22 19
3 3 2 1 2 1 1 0 1 1 1 2 2 2 3 3 3 2 5 5 6 4 3 3 2 4 6 6 5 10 15 17 18 20 21 22 22 21 21 19 14 18 17 17
2 1 1 2 2 3 3 2 2 5 2 2 2 4 10 1 2 2 4 5 4 3 3 3 5 5 6 7 11 16 19 18 20 21 24 23 28 26 14 10 20 19 17 17

GFSNW_925_spd_009.txt.gz
Wind_Speed
7 10 12 14 17 5 4 4 3 8 4 4 1 2 2 2 5 7 5 4 3 3 3 4 3 2 2 1 1 2 2 3 3 3 7 4 4 5 4 3 4 3 2 7
5 8 11 13 14 15 3 3 1 4 3 3 2 1 4 3 4 5 3 3 3 4 2 3 2 2 4 4 3 1 2 2 3 7 6 4 3 3 3 4 3 6 3 5
3 6 9 10 12 12 4 3 3 4 4 0 5 4 2 3 3 3 5 4 5 4 5 6 2 5 5 7 3 6 5 2 6 5 6 5 10 5 3 5 3 4 11 18
2 4 7 9 10 8 2 3 1 3 1 4 3 3 2 3 2 2 6 5 4 3 2 3 2 3 5 3 3 3 3 2 3 6 7 6 14 13 16 9 11 6 9 10
1 3 6 7 8 3 5 4 4 3 2 2 3 4 1 4 2 2 2 6 1 4 3 4 2 1 1 4 3 3 2 3 3 4 6 10 15 14 11 14 11 8 10 10
2 2 4 7 8 1 4 2 3 4 5 2 4 2 1 2 4 5 4 7 4 2 4 4 4 5 4 5 4 4 2 4 2 5 6 9 7 7 4 3 5 5 5 7
3 2 4 7 9 5 6 3 4 4 2 3 3 1 3 3 2 6 2 4 4 3 4 3 4 3 4 1 6 7 6 4 2 3 3 1 8 3 6 9 10 6 6 5
5 3 4 6 8 8 9 5 3 3 1 1 3 3 4 2 4 2 2 1 1 8 6 4 6 5 7 4 5 2 4 4 3 2 3 6 9 9 2 3 7 4 5 4
7 4 3 5 6 6 8 10 7 6 6 4 1 3 2 4 2 4 1 4 6 7 3 4 3 3 4 5 5 5 5 5 3 3 4 5 8 4 3 0 6 1 1 6
9 6 3 3 4 4 4 5 5 4 3 3 4 3 4 5 3 3 3 1 3 4 2 2 3 4 3 3 3 3 2 1 4 2 6 8 9 6 1 4 5 5 5 13
12 9 5 2 2 4 3 5 4 2 3 3 4 3 4 2 3 4 3 4 3 3 2 3 4 3 5 1 4 4 4 3 4 2 3 8 4 1 5 7 3 6 9 7
15 12 8 5 2 1 3 2 3 3 3 2 3 5 5 4 8 5 2 4 4 5 4 1 2 3 2 4 5 2 3 8 4 9 6 5 4 6 7 6 7 5 4 4
17 15 12 9 6 3 2 3 3 2 4 3 3 5 9 11 12 12 4 3 3 3 3 4 3 4 3 4 5 3 4 5 4 4 7 12 8 15 18 10 3 3 5 8
20 17 15 12 9 7 5 3 3 2 5 3 5 3 6 7 14 16 16 6 5 6 3 3 3 3 6 4 5 6 6 2 5 13 14 15 17 14 5 5 7 9 7 4
22 20 18 15 12 10 8 8 8 8 2 3 4 12 8 9 12 16 14 13 3 2 1 2 3 2 2 2 1 3 6 8 5 11 15 13 15 5 4 4 3 3 6 9
22 23 20 17 15 12 6 2 12 16 9 1 2 4 3 2 6 10 11 10 3 3 3 3 3 3 4 3 4 7 11 11 12 15 14 6 5 9 8 5 0 13 14 16
23 18 17 17 16 17 5 4 2 12 13 2 3 3 3 2 2 3 3 2 1 3 3 3 3 5 4 2 11 8 6 11 10 8 2 2 5 1 2 9 12 14 14 15
20 17 14 13 17 16 7 8 4 15 4 3 3 3 3 1 2 2 4 1 2 2 2 1 2 1 2 5 8 6 4 5 5 4 4 6 6 6 5 11 14 12 7 6
16 16 16 16 4 5 5 9 9 12 2 2 2 2 2 1 2 0 2 2 1 1 1 2 1 1 4 4 4 6 5 4 4 6 6 5 1 5 6 6 7 7 7 7
22 14 3 2 1 10 11 3 2 3 2 2 2 1 2 2 1 1 2 2 2 2 2 2 1 3 4 7 9 6 4 7 8 5 4 5 4 6 7 6 6 7 8 10
3 3 2 8 8 2 5 2 2 1 2 1 1 2 2 1 2 1 1 1 1 2 4 1 2 2 4 8 8 7 10 12 10 8 5 2 6 7 6 8 9 14 14 11
9 17 10 4 2 3 3 1 1 1 3 1 2 2 2 1 2 2 1 2 1 4 1 1 2 3 2 4 5 4 5 4 2 4 7 12 10 12 12 13 15 16 17 19
7 5 3 2 2 3 4 6 2 2 2 3 1 1 1 1 3 2 2 2 4 1 1 3 4 1 4 5 4 6 9 9 10 13 16 16 17 19 19 19 21 17 17 17
3 3 4 3 3 2 3 3 3 3 1 2 3 2 1 1 2 2 2 2 1 1 2 5 2 1 4 5 4 4 7 10 11 15 19 19 20 22 27 24 26 25 21 23
2 3 3 2 2 1 1 1 1 1 2 2 2 2 2 1 2 1 2 0 3 4 4 2 3 3 4 5 5 6 7 10 11 18 16 20 23 21 24 29 25 20 22 20
3 3 3 1 3 1 1 1 1 1 2 2 2 2 3 3 3 2 5 5 6 4 3 3 2 2 4 5 7 13 18 19 17 20 21 21 22 21 22 28 27 24 21 21
3 1 1 2 2 3 3 1 2 7 2 2 3 3 8 1 3 2 4 4 3 3 3 2 2 4 7 12 14 17 20 19 21 22 24 23 27 27 22 14 25 27 22 20

GFSNW_925_spd_015.txt.gz
Wind_Speed
11 13 15 17 15 4 5 4 3 4 4 4 1 3 5 2 1 5 4 4 4 3 3 3 3 3 1 4 1 2 1 2 2 2 2 1 2 3 3 2 2 1 1 7
9 12 15 16 17 3 3 3 1 4 2 3 1 1 3 3 2 4 3 3 3 3 3 4 2 3 1 5 2 1 2 2 3 2 2 2 2 2 4 4 2 7 3 6
8 11 13 15 15 8 2 3 2 4 4 1 6 5 2 4 3 4 5 4 4 4 4 5 3 2 1 3 2 6 4 2 4 4 4 2 5 4 4 4 3 5 12 19
6 9 12 13 13 8 2 3 1 1 1 3 4 4 3 4 3 3 4 4 3 5 3 2 2 1 2 2 1 3 2 3 3 5 9 5 8 13 10 12 12 7 13 15
4 8 10 12 11 6 5 4 4 3 2 2 4 4 1 4 3 2 2 6 2 3 4 4 4 3 2 3 2 2 2 2 1 4 6 5 9 12 11 12 14 13 18 19
3 7 9 10 9 4 4 3 3 4 4 2 4 2 4 5 5 4 2 8 5 4 4 4 2 2 3 2 3 2 1 3 1 3 5 9 6 3 4 3 6 4 5 7
2 5 8 10 10 5 5 4 5 4 1 2 3 3 3 4 2 7 3 3 5 2 4 4 4 6 6 4 5 1 4 3 1 3 4 2 1 4 7 9 12 7 9 6
2 3 7 9 11 7 7 5 3 3 2 1 3 5 6 5 5 4 4 3 2 4 5 3 4 4 5 3 7 3 1 4 2 2 3 7 10 2 2 3 6 3 2 3
3 3 5 8 7 6 11 12 8 5 6 4 3 4 2 4 3 3 3 3 4 5 3 3 3 2 3 2 1 4 4 4 1 3 3 5 5 1 2 3 8 1 3 16
5 3 4 6 7 7 5 8 6 4 4 2 3 3 4 4 3 3 1 2 3 3 2 2 2 3 1 2 1 2 1 1 4 5 5 8 9 5 1 2 4 3 5 11
7 5 3 4 6 6 5 9 9 3 3 2 3 4 4 3 2 4 4 3 2 2 3 3 3 2 3 2 2 3 3 3 4 3 4 7 2 2 2 2 7 9 10 6
9 6 4 3 5 5 5 5 8 9 8 3 3 3 4 2 7 5 0 3 4 4 4 1 3 3 2 4 3 2 4 6 3 8 6 2 3 8 6 4 3 4 2 6
11 9 6 4 3 5 4 8 6 5 3 3 2 1 2 5 4 4 4 2 3 3 2 4 2 3 4 4 6 2 3 4 4 1 7 9 10 9 2 3 2 2 3 6
13 10 8 6 4 3 5 5 7 8 7 3 3 3 1 3 5 7 4 8 8 7 2 3 3 2 4 4 3 5 5 3 4 6 15 13 7 1 2 5 4 4 6 8
15 13 11 8 6 4 4 5 4 4 3 4 3 7 1 3 4 7 8 15 5 2 2 2 3 2 2 1 1 3 4 7 4 7 9 7 4 4 5 2 2 4 6 9
19 16 13 11 9 7 3 3 8 8 6 4 1 2 4 6 4 5 6 10 3 3 4 3 3 3 3 2 3 4 10 10 10 8 4 3 4 5 1 2 4 8 9 11
21 18 15 14 11 10 3 3 2 12 8 3 2 3 3 3 4 3 3 2 1 2 2 3 2 3 4 2 3 1 4 5 5 3 5 6 3 3 2 5 7 10 11 10
23 20 17 15 17 15 7 4 10 17 6 4 2 3 2 1 1 1 2 1 1 2 0 1 2 1 1 3 0 6 6 4 9 11 12 11 6 5 6 7 8 9 9 11
27 20 17 12 6 6 6 14 19 11 3 4 3 5 3 2 2 2 2 1 2 1 1 1 1 1 4 2 3 4 6 3 9 9 7 3 2 6 8 9 11 10 11 12
28 19 4 2 4 14 17 4 2 3 2 2 2 1 2 1 1 1 1 2 1 1 1 2 1 2 3 2 2 3 6 9 5 3 4 4 7 9 9 10 13 13 15 17
4 3 2 8 8 3 4 2 2 1 1 1 1 2 3 3 2 2 1 1 1 1 0 2 2 2 4 4 3 2 5 5 4 2 3 6 7 9 10 11 14 15 18 17
9 16 10 5 1 3 3 2 2 1 2 1 2 1 2 1 1 2 1 2 0 3 0 1 2 1 3 4 3 2 3 3 4 5 7 10 11 12 13 14 16 19 23 27
8 5 4 2 2 3 3 4 2 2 3 3 2 2 2 2 2 3 2 3 3 1 1 3 2 3 4 3 2 1 1 6 8 10 14 15 17 21 20 18 23 25 23 27
3 3 4 2 2 1 2 2 3 1 2 4 2 2 2 1 2 1 3 1 1 2 2 4 2 4 4 3 2 1 5 11 11 12 15 16 18 20 24 24 24 23 23 28
3 3 3 2 1 2 2 2 3 1 3 3 3 3 2 2 2 1 2 2 3 4 4 2 3 3 2 3 3 5 5 10 11 13 13 19 21 19 22 25 24 24 25 26
3 3 3 1 3 1 1 1 2 2 2 2 2 3 2 1 3 3 4 4 5 3 2 2 2 3 3 4 7 12 14 15 14 15 18 19 20 19 20 27 26 25 25 27
3 2 2 3 2 3 2 2 2 7 2 2 2 3 3 3 1 3 4 5 3 3 3 2 3 4 5 10 13 16 17 16 16 18 20 20 22 23 21 17 24 25 24 24

GFSNW_925_spd_021.txt.gz
Wind_Speed
5 7 8 5 13 14 10 4 5 2 4 6 4 5 6 1 8 4 2 2 4 6 5 3 3 5 5 2 3 4 5 2 2 4 4 3 4 4 5 3 4 3 4 7
4 6 9 5 13 15 7 3 5 2 4 4 3 5 6 3 8 3 4 3 2 4 6 4 6 6 4 3 4 6 5 1 3 4 6 5 4 1 2 2 3 10 7 6
4 6 8 7 7 11 4 3 3 4 5 3 10 10 10 7 3 4 3 6 6 8 6 4 7 7 4 2 4 3 2 2 3 5 9 9 8 10 9 9 7 10 11 16
4 6 7 7 4 7 3 2 2 2 7 5 9 9 10 10 5 3 6 4 4 8 4 7 5 7 6 3 4 1 3 2 5 9 12 12 12 13 13 14 15 14 17 17
4 5 7 7 3 5 2 2 3 2 2 6 10 4 10 12 5 8 7 7 8 6 7 3 6 5 3 2 4 1 2 0 4 4 6 9 13 16 17 16 10 14 13 16
4 5 6 7 4 2 2 2 1 3 2 7 8 7 9 9 9 3 2 11 8 9 9 10 10 7 5 3 1 3 1 1 3 4 10 13 5 2 1 4 7 8 11 11
3 4 6 7 4 3 2 2 2 3 4 7 8 7 8 11 5 8 9 6 7 6 9 9 7 8 5 1 2 2 4 1 2 3 6 3 4 6 12 10 8 8 11 11
3 4 6 7 7 3 4 3 1 3 3 4 5 9 12 9 11 12 11 6 5 9 1 1 2 1 3 0 3 3 3 4 2 2 5 13 10 3 4 9 13 13 7 7
5 4 5 7 6 6 6 5 3 2 6 4 9 10 13 11 7 6 4 5 4 2 2 2 2 3 1 5 6 4 3 1 3 3 3 4 3 1 0 5 12 8 9 16
5 4 4 5 7 6 5 4 4 0 3 3 5 6 9 4 8 5 6 6 3 2 2 1 3 3 2 3 3 4 2 2 5 6 5 7 9 3 4 6 3 11 13 9
6 3 3 4 5 5 6 4 5 3 3 5 1 2 5 4 6 5 8 5 2 2 2 4 3 1 4 2 3 5 7 6 4 4 4 6 3 5 1 8 11 8 7 6
7 4 3 3 4 3 5 3 7 9 4 4 4 5 5 5 7 2 8 1 5 5 3 3 2 3 0 0 3 6 5 7 4 8 5 9 7 10 7 5 7 7 4 4
7 5 4 3 3 3 4 4 2 4 3 3 4 3 4 4 5 2 3 1 2 4 4 4 3 3 5 4 5 7 8 12 6 8 8 12 8 8 9 7 5 1 5 7
8 6 4 3 3 4 5 3 2 3 5 4 3 1 3 3 2 1 3 6 6 6 3 2 3 3 7 4 7 8 7 4 9 13 16 12 4 7 5 4 3 6 3 7
10 8 6 4 3 5 6 5 5 4 3 3 2 2 1 2 0 3 3 7 5 3 2 2 3 3 1 1 2 9 10 14 9 8 6 3 1 5 2 5 4 4 6 8
11 9 7 6 5 5 2 2 1 2 3 3 2 2 1 0 3 5 7 8 1 2 3 3 3 3 4 3 3 5 9 8 8 7 5 2 8 5 6 3 3 6 10 14
13 11 9 8 6 2 2 1 2 5 3 2 2 2 2 1 4 2 4 2 1 3 2 3 3 4 3 2 5 7 8 6 4 2 4 4 3 2 3 2 6 9 13 17
17 13 11 9 7 4 2 2 7 7 4 2 2 2 1 4 2 2 0 2 1 3 1 1 2 1 1 5 7 7 6 5 5 4 2 2 5 4 2 6 10 11 12 16
20 17 14 11 7 5 3 7 7 2 1 2 2 5 4 5 2 2 2 1 2 2 1 2 3 3 5 7 10 7 9 8 7 7 5 4 0 3 6 9 11 12 12 16
24 16 6 2 5 11 14 3 1 1 1 2 3 3 4 4 3 2 3 1 1 3 3 3 3 3 4 4 4 5 8 8 9 6 4 1 4 6 8 10 11 13 15 17
9 3 2 5 14 4 3 2 3 2 2 3 1 3 4 2 3 3 1 2 3 3 3 3 3 3 8 10 9 10 12 10 5 3 2 3 5 7 8 9 13 13 15 16
9 14 7 3 1 2 4 3 2 4 4 3 3 1 2 2 1 2 1 3 3 3 4 2 3 3 10 12 12 10 9 7 5 1 3 6 8 10 10 11 14 15 16 20
10 7 3 1 1 2 4 7 3 3 3 3 3 2 2 2 2 2 3 4 2 1 2 3 2 6 9 11 10 9 9 5 1 5 7 9 10 10 10 13 15 17 16 16
2 2 3 2 2 1 2 3 3 3 3 5 4 2 2 1 2 1 3 2 2 3 3 4 1 6 9 9 7 7 6 5 3 8 10 10 10 12 14 18 18 18 17 19
2 1 2 3 1 2 2 3 2 3 2 2 3 3 2 2 2 1 3 4 3 4 2 3 2 7 7 7 5 5 2 3 6 10 11 12 16 15 15 14 14 13 20 21
3 2 2 2 2 2 2 3 3 2 1 2 2 2 1 2 1 3 3 2 3 2 2 2 6 6 5 4 2 4 9 10 13 13 14 14 14 16 16 16 19 19 16 15
1 2 2 2 2 3 2 1 2 2 1 2 2 0 3 1 1 2 2 2 2 1 2 3 5 6 5 4 6 8 10 12 14 14 14 15 15 15 14 14 15 13 15 19

GFSNW_925_spd_024.txt.gz
Wind_Speed
2 4 2 10 15 17 9 4 4 6 9 5 6 8 2 1 7 3 2 4 2 4 4 3 4 8 7 2 3 6 4 2 1 7 6 4 3 5 4 1 4 1 1 6
1 4 4 9 17 18 5 4 4 4 5 5 4 3 5 6 8 8 5 2 1 2 5 3 6 8 3 4 7 4 4 1 3 8 5 4 0 3 2 4 2 5 4 4
2 4 5 7 15 18 3 4 3 4 5 8 11 8 7 5 4 5 1 4 4 6 5 3 6 9 4 4 8 2 3 1 1 2 6 7 7 10 8 10 4 6 8 14
2 4 6 5 9 12 5 4 5 7 7 7 7 11 9 10 6 4 5 5 6 6 3 5 5 10 8 5 3 2 3 1 4 7 9 8 9 11 11 12 12 9 11 16
2 4 5 5 5 8 4 4 2 3 4 11 9 5 7 11 7 9 9 4 7 8 6 3 7 6 5 4 4 2 3 1 3 3 5 10 13 15 13 13 13 10 11 12
2 4 5 5 3 6 6 2 2 2 2 4 5 5 8 9 9 2 4 6 7 11 12 12 11 10 8 5 4 4 2 1 2 3 9 10 3 3 6 8 7 9 5 10
3 4 6 6 3 1 4 3 3 3 2 5 8 9 6 8 9 6 7 7 8 7 10 10 10 10 8 1 5 2 4 2 2 2 4 2 4 14 11 7 6 9 11 9
3 5 6 7 5 5 4 2 3 3 2 7 5 9 7 11 6 10 12 9 8 9 2 2 2 2 4 1 4 3 4 3 2 1 3 9 9 3 5 5 9 9 7 12
4 4 6 8 7 7 5 5 5 3 5 2 6 7 11 8 9 7 4 3 4 1 2 2 2 3 2 6 6 9 4 4 2 2 2 3 3 7 5 5 8 9 11 10
5 4 6 7 7 7 5 4 4 2 2 3 5 6 8 8 8 5 7 5 2 3 2 2 3 2 2 4 5 4 2 2 3 5 5 6 8 6 1 3 3 8 7 6
6 4 5 6 5 6 6 4 6 4 3 4 5 2 3 1 5 4 8 4 1 2 3 3 2 1 3 1 3 6 7 6 4 4 3 6 1 3 2 5 7 6 7 6
6 4 4 5 5 4 4 3 7 9 3 4 5 7 8 7 9 3 7 1 6 4 3 2 1 2 1 3 2 6 4 6 4 9 5 7 7 4 6 7 7 5 5 4
6 4 4 5 5 4 6 5 4 4 2 4 4 3 6 6 9 6 3 1 2 5 4 4 3 3 4 4 4 2 3 7 3 3 8 9 6 10 11 6 4 3 4 5
6 4 3 4 6 7 7 4 5 3 5 4 3 2 3 4 4 4 5 6 9 6 4 3 3 3 8 5 6 4 4 6 6 9 11 4 9 7 4 3 1 3 2 5
7 5 3 3 5 7 7 6 6 4 4 3 2 1 2 2 1 4 4 8 5 2 2 2 3 3 1 3 0 3 5 7 5 7 1 3 5 6 3 2 4 2 3 6
7 6 4 2 2 3 1 2 4 4 5 3 2 3 1 1 2 5 4 6 2 3 3 3 3 3 3 3 4 6 8 6 4 2 8 9 7 4 4 2 1 1 5 8
7 5 4 3 2 4 3 1 0 3 3 3 2 2 2 4 4 2 3 6 2 0 1 3 2 2 2 3 5 6 7 9 1 7 8 4 5 3 6 4 1 3 8 11
10 7 5 3 2 2 1 4 6 5 3 2 3 2 1 2 2 2 3 2 2 0 1 1 2 0 2 4 8 11 14 4 5 4 3 6 9 5 6 2 4 6 8 11
13 9 5 3 1 1 0 4 3 2 2 2 2 5 4 4 2 2 1 0 1 0 1 2 2 3 6 7 7 9 5 7 6 7 8 8 4 2 2 3 6 7 8 11
16 10 3 1 2 5 8 1 1 1 1 1 3 3 3 4 2 1 2 2 2 2 3 3 2 3 8 10 4 1 7 7 8 7 6 5 1 1 3 6 8 8 10 11
5 3 2 2 7 3 2 2 2 2 2 2 1 4 5 3 3 3 1 3 2 3 3 3 3 3 6 10 5 3 9 10 7 6 7 4 3 3 5 5 7 7 9 10
7 12 8 4 3 2 3 3 1 3 3 2 2 1 3 2 1 2 2 3 2 5 6 2 3 3 9 10 10 10 10 10 9 6 3 3 4 6 6 5 8 9 13 18
7 7 4 2 1 2 3 4 2 1 1 1 1 2 2 2 2 2 2 5 4 1 3 2 2 6 7 8 9 8 12 15 12 5 5 6 7 7 8 9 13 15 15 17
3 2 3 2 2 1 2 2 2 1 2 3 2 2 1 1 2 2 3 1 2 2 3 4 2 6 8 8 7 7 10 9 4 4 6 6 6 9 11 14 17 17 17 18
2 0 2 2 1 2 1 2 1 3 1 2 2 2 1 1 2 1 2 3 2 2 1 2 3 7 9 8 7 7 5 4 2 5 8 10 11 12 15 17 17 16 17 20
2 2 2 1 2 1 1 1 2 1 1 1 2 2 0 2 1 2 1 1 1 2 2 2 5 7 6 5 6 5 3 6 7 10 11 13 14 15 17 16 17 23 21 18
1 2 2 2 3 2 1 0 2 1 1 2 1 1 4 1 1 1 1 2 2 2 2 3 5 4 4 4 1 3 6 8 10 13 14 15 16 16 17 15 20 18 18 16

GFSNW_925_spd_030.txt.gz
Wind_Speed
6 4 7 15 18 19 15 4 3 4 6 3 1 2 4 4 3 5 5 3 4 4 4 4 4 3 2 6 2 3 2 5 3 2 2 1 2 3 4 4 2 1 4 4
5 4 7 16 20 23 8 4 3 3 1 3 2 4 4 2 2 1 2 2 4 4 4 6 3 4 2 8 4 2 2 2 3 6 6 5 2 2 5 6 3 5 5 5
5 4 7 17 23 22 5 3 3 3 3 1 6 2 3 2 3 2 3 3 5 5 5 6 4 3 4 4 3 2 2 3 5 6 4 3 1 2 4 5 3 3 5 5
6 4 6 15 22 25 1 2 4 6 4 3 3 4 4 3 1 2 3 4 3 5 3 3 4 3 2 4 3 3 3 3 1 1 3 1 1 2 1 4 4 5 6 6
6 4 7 14 19 19 5 3 3 2 3 5 6 5 6 8 3 3 0 3 4 5 4 5 7 7 3 4 2 2 3 1 2 3 6 6 3 5 5 4 4 4 8 6
7 6 8 14 20 19 4 2 1 5 2 5 4 4 6 9 8 6 4 11 8 9 4 4 5 4 5 6 6 2 3 4 3 4 4 5 6 5 3 1 2 4 5 6
8 8 9 13 20 18 4 3 4 4 1 4 6 3 2 6 3 8 3 6 6 3 6 2 6 11 11 10 8 3 4 4 3 3 3 1 5 5 4 9 4 8 11 8
8 8 9 11 13 12 6 1 3 3 1 2 3 5 10 8 7 6 5 6 1 7 6 5 5 5 6 4 6 6 4 5 3 3 2 5 4 4 5 5 5 4 9 7
8 8 9 9 9 10 9 8 6 5 5 3 2 4 8 6 4 5 4 5 5 8 3 4 4 4 5 2 2 6 6 6 4 2 4 6 5 2 4 4 5 8 7 7
9 9 9 9 8 7 7 7 6 5 4 3 3 4 5 6 4 4 2 1 4 4 3 3 3 3 4 4 6 4 3 3 4 2 2 7 7 4 3 5 7 7 7 6
10 10 10 9 8 7 7 10 7 3 3 3 5 4 4 3 3 5 4 4 4 3 4 3 4 3 5 2 5 6 7 6 4 3 2 7 7 3 7 5 3 7 6 6
10 10 10 10 8 7 8 6 10 11 5 3 7 13 13 6 3 6 1 6 4 5 4 2 3 2 1 2 3 2 2 7 5 9 7 5 6 5 3 6 6 6 6 6
10 10 11 10 10 8 9 10 6 7 4 4 4 3 8 10 10 3 5 2 5 4 3 4 3 2 4 4 5 3 4 5 3 3 5 7 5 3 3 4 5 5 5 5
10 10 11 12 12 10 9 9 7 7 6 4 3 3 5 9 10 9 4 10 9 8 3 3 3 3 4 3 3 4 5 4 4 4 2 5 1 2 6 6 6 5 5 6
10 10 10 12 13 14 16 17 14 7 4 4 2 1 6 8 9 12 14 17 5 3 3 2 3 2 3 1 2 3 4 7 4 5 7 5 5 8 7 6 6 6 7 8
10 9 8 9 11 11 4 4 8 9 4 4 2 4 6 11 10 14 13 7 4 3 3 3 2 3 3 3 3 7 5 4 5 5 4 3 7 9 8 8 9 8 10 14
11 10 9 8 7 5 7 4 3 5 4 3 2 3 4 6 5 4 3 6 2 2 2 1 3 1 2 3 5 6 8 7 3 8 10 5 3 5 7 12 13 19 16 14
12 13 12 12 12 11 8 9 9 7 10 5 3 2 3 6 2 2 4 2 3 4 1 1 2 2 2 4 7 6 7 2 7 9 1 6 9 12 10 14 15 8 6 7
13 12 10 5 4 4 2 6 7 10 6 4 2 4 3 2 2 1 3 2 2 2 1 1 2 2 5 5 4 4 5 6 8 6 8 10 10 11 10 10 6 7 4 5
13 7 5 3 3 2 3 3 4 4 3 3 2 1 1 3 1 2 2 2 1 1 3 1 2 3 5 9 6 4 7 6 11 12 8 11 10 8 6 6 6 6 4 1
3 3 2 2 4 2 4 3 3 0 2 2 1 2 3 2 3 2 1 2 1 2 4 3 2 3 3 6 5 6 11 15 14 17 14 11 10 5 5 4 4 2 1 3
8 13 7 4 5 3 4 2 1 1 3 1 1 1 1 1 1 3 1 2 1 4 2 1 2 2 4 7 10 12 17 21 19 19 14 10 10 8 6 2 2 4 5 8
7 6 4 2 3 2 3 6 1 2 1 1 1 1 1 2 3 2 2 4 4 1 2 2 2 6 7 8 9 11 17 18 16 11 11 9 6 3 4 5 7 8 10 13
3 2 3 1 1 2 1 1 2 0 1 2 2 2 2 1 2 1 3 0 1 3 2 3 1 4 7 4 4 8 5 8 11 8 7 6 5 5 7 8 10 12 14 15
3 3 3 1 2 2 1 1 2 2 1 2 2 2 1 1 2 0 2 1 1 0 1 2 1 4 6 6 6 5 5 6 6 5 5 6 6 7 9 11 13 14 17 19
3 3 3 1 2 2 1 1 1 1 1 1 2 1 1 0 1 2 2 3 2 1 1 1 3 4 5 5 4 2 5 6 5 5 5 7 9 10 11 14 16 17 18 19
2 2 2 2 3 3 1 1 1 1 1 1 1 2 2 1 1 2 2 2 2 2 2 4 2 2 4 5 4 3 4 4 4 5 7 8 9 11 13 13 19 20 21 22

GFSNW_925_spd_033.txt.gz
Wind_Speed
17 14 14 19 24 24 17 5 3 2 4 4 1 3 5 3 2 6 4 4 3 6 4 4 3 4 1 5 0 2 2 5 3 1 4 3 2 2 4 4 2 1 3 5
16 13 14 22 26 26 8 4 2 2 2 4 1 3 3 1 2 3 2 2 2 2 5 6 2 3 1 4 3 4 2 2 3 6 6 5 2 3 5 5 3 4 4 5
15 13 15 24 28 26 7 4 3 3 3 1 7 3 2 0 3 3 3 3 5 5 5 6 4 3 2 2 3 3 4 3 5 6 4 3 3 2 3 5 3 3 6 3
14 12 16 25 29 23 5 2 4 5 4 2 4 4 2 4 2 2 4 3 3 5 4 3 4 2 2 4 2 3 4 4 2 3 4 1 2 4 6 6 5 6 5 7
12 12 17 24 29 22 2 4 4 3 2 6 6 3 6 7 2 2 0 5 3 1 6 6 7 6 3 3 3 3 4 1 2 1 5 5 4 6 6 6 4 6 4 4
12 12 17 25 29 22 4 3 2 4 3 4 6 5 6 8 6 3 2 8 5 5 2 3 4 4 5 5 6 3 3 4 3 3 4 5 6 8 9 5 4 6 6 7
12 12 18 25 30 27 4 3 4 4 1 3 7 7 4 6 4 7 3 4 6 4 6 4 6 11 11 11 8 3 5 4 3 2 3 2 6 4 5 4 2 3 3 9
12 12 17 24 30 27 5 2 3 3 2 2 3 7 6 7 6 5 3 4 0 8 5 5 5 5 6 5 7 6 3 5 3 3 3 5 4 4 6 6 7 6 8 6
12 12 15 17 24 23 10 3 4 4 6 2 2 5 6 5 4 4 3 4 7 6 4 4 4 4 4 1 2 5 6 6 4 3 4 6 6 3 4 3 5 9 7 8
12 12 14 14 17 20 13 5 4 5 4 2 2 3 6 6 4 4 2 2 3 4 2 3 3 3 3 4 6 3 2 3 5 2 3 8 7 4 3 5 7 7 9 8
12 12 12 13 14 15 9 8 5 3 3 2 3 3 4 3 3 5 5 4 3 3 4 3 3 3 5 2 4 6 7 6 4 3 1 8 7 3 8 6 1 7 7 7
12 12 12 12 14 15 11 7 14 14 6 3 6 14 15 4 4 5 2 4 4 5 4 1 3 2 2 2 3 2 3 7 5 9 6 4 5 3 2 5 6 6 7 6
13 13 12 13 12 9 10 13 8 9 4 4 4 4 8 17 5 3 5 2 5 3 2 4 3 2 4 4 6 3 4 4 3 3 4 7 7 2 3 4 5 5 6 6
13 14 14 13 13 12 14 11 9 10 5 4 4 6 5 12 7 4 3 11 9 7 3 3 3 3 4 3 3 3 5 5 4 4 6 3 6 6 6 6 7 7 6 5
13 13 13 15 16 17 20 22 16 9 5 4 1 2 9 13 11 15 16 19 6 3 3 2 3 2 3 0 2 3 5 6 4 6 7 5 5 7 8 8 7 9 9 6
12 12 12 14 15 11 5 4 10 10 6 4 2 4 5 12 13 18 13 7 4 3 3 2 2 2 3 4 4 7 5 4 5 4 3 4 3 5 6 7 9 11 10 12
13 13 10 9 5 5 9 4 3 5 5 3 3 3 4 6 5 4 3 6 3 2 2 1 2 1 3 3 4 3 6 7 6 4 6 2 3 5 7 10 13 19 17 13
15 15 17 18 17 13 9 14 9 8 10 4 4 2 3 6 2 2 4 2 3 4 1 1 1 1 1 3 5 5 5 4 2 7 3 3 7 10 11 18 17 13 7 7
15 13 11 6 6 5 3 6 10 14 8 3 2 4 3 3 2 1 3 2 2 2 1 1 2 1 4 4 4 6 5 3 4 3 4 8 11 12 13 14 10 6 4 5
12 5 5 3 4 3 3 3 4 5 4 3 2 1 2 2 1 2 2 2 1 1 3 1 1 3 4 6 7 7 7 7 7 9 6 10 12 11 12 8 4 4 5 3
3 3 2 2 4 3 4 3 4 1 2 2 1 1 3 2 3 2 1 2 1 2 3 3 2 2 4 8 10 11 11 16 16 19 17 17 14 9 4 1 2 1 1 2
8 13 7 3 5 3 5 2 1 2 2 2 1 1 1 1 2 3 0 2 1 4 2 1 2 2 4 9 10 10 16 20 18 19 16 13 9 7 5 3 0 2 4 6
6 6 4 2 3 3 5 5 1 2 1 1 1 2 1 2 3 3 2 3 3 1 2 2 0 5 6 5 7 9 13 16 14 9 7 8 6 4 5 4 5 7 8 9
4 2 3 2 2 2 1 1 2 1 1 2 2 2 2 1 2 1 3 0 1 3 2 3 1 3 3 5 5 5 4 5 9 8 7 6 4 3 3 3 5 7 10 12
3 2 3 2 2 3 1 0 2 2 1 1 2 2 2 1 2 1 2 1 2 1 1 1 1 4 4 8 6 4 5 5 6 4 4 3 3 4 6 7 7 9 12 14
3 3 3 1 2 1 1 1 2 1 1 1 2 2 2 0 1 2 2 2 1 2 1 2 3 4 5 5 3 2 1 2 3 4 4 5 6 6 8 10 11 11 13 15
3 2 2 2 3 3 1 1 1 1 2 2 1 3 3 2 2 1 2 2 2 3 3 3 5 4 5 6 5 1 2 2 4 6 7 8 9 10 11 10 15 16 18 19

GFSNW_925_spd_036.txt.gz
Wind_Speed
33 29 26 23 27 28 22 6 3 2 7 4 1 4 5 3 4 2 3 4 3 5 3 4 3 4 2 3 1 3 1 5 2 2 2 2 2 3 4 4 3 1 3 6
32 29 26 26 31 33 12 4 3 4 1 4 1 3 1 2 2 3 2 3 3 3 4 5 2 3 1 3 2 6 5 2 3 6 5 4 2 3 4 5 3 5 5 5
32 29 27 29 34 33 9 4 3 3 3 1 7 5 3 2 2 2 4 4 4 5 4 5 5 3 1 1 2 4 6 3 5 7 4 3 4 4 4 5 3 4 6 4
30 27 27 33 37 31 7 2 3 4 3 1 3 4 6 4 2 2 5 4 3 4 4 3 3 2 2 4 1 3 3 4 2 2 3 2 2 4 6 7 5 6 4 7
29 27 29 35 37 27 3 4 4 3 2 6 6 3 6 6 3 3 2 6 2 2 6 6 8 6 4 4 3 3 3 2 1 2 3 5 3 6 7 5 3 7 4 8
26 26 30 35 39 22 4 3 3 5 3 3 5 6 6 7 6 3 3 6 5 3 1 3 4 5 7 5 5 3 3 5 3 4 4 5 6 9 9 5 5 7 6 8
24 24 29 36 40 25 4 4 5 4 2 3 6 8 4 5 3 7 3 4 5 1 6 6 6 10 11 11 8 3 5 4 3 2 3 2 6 2 5 8 5 7 2 4
21 24 30 35 40 27 5 6 4 4 2 2 2 7 6 7 5 4 4 4 2 7 4 5 5 5 6 5 6 7 3 5 3 3 3 6 5 5 6 7 7 8 7 4
20 24 29 34 37 33 6 5 5 4 6 4 4 5 4 5 4 3 3 4 5 6 3 4 4 4 4 2 1 4 5 6 4 3 4 6 6 3 3 3 5 5 7 8
20 22 25 30 34 32 10 4 5 5 4 2 2 4 6 6 5 4 3 5 1 3 3 3 3 3 2 4 5 3 3 3 4 2 3 8 7 3 2 5 7 5 8 7
20 19 21 26 29 26 16 5 4 3 3 2 2 2 5 3 3 5 5 4 3 3 4 3 3 3 5 2 4 6 7 6 4 3 2 7 6 3 7 6 2 5 7 8
19 17 18 23 28 25 8 6 11 12 5 3 7 15 12 2 5 6 2 4 4 5 5 1 3 2 1 2 3 2 2 6 5 8 6 5 6 4 3 3 4 5 7 5
17 17 19 23 26 28 25 13 10 10 4 4 4 4 6 14 3 4 5 2 5 3 2 4 2 3 4 4 5 2 4 4 2 2 4 7 8 5 5 5 5 4 4 6
19 18 19 21 20 21 21 11 9 10 4 4 3 7 5 13 4 2 2 11 8 7 3 3 3 3 3 3 3 3 4 4 4 5 8 4 9 8 6 5 4 5 5 4
20 19 21 21 20 21 25 24 16 9 5 4 1 1 10 16 12 17 18 18 6 3 3 2 3 2 4 1 1 3 5 6 4 6 6 3 6 4 4 7 6 7 7 7
17 20 21 20 15 11 6 4 12 11 6 4 2 3 5 12 14 20 13 7 4 3 3 2 1 1 3 4 3 6 4 3 3 4 1 4 4 5 2 5 6 6 9 14
16 16 13 11 9 9 9 5 2 6 6 3 3 3 4 7 5 5 4 7 3 3 2 2 2 1 3 3 4 3 6 6 6 5 3 3 2 2 5 10 17 22 20 19
23 23 22 21 19 15 12 18 11 8 11 4 3 2 3 8 2 2 3 2 3 4 2 1 2 1 1 3 4 7 6 7 5 6 4 1 7 13 11 17 18 15 13 9
16 15 13 7 8 5 3 6 12 16 9 4 3 4 3 3 2 1 3 2 3 2 1 1 2 1 3 4 9 9 8 5 6 5 9 12 15 14 14 15 14 11 5 4
11 5 6 3 4 3 4 3 4 5 4 4 3 1 2 2 1 2 2 2 1 1 3 1 1 1 4 7 6 7 9 6 4 8 8 13 14 12 12 12 7 2 7 4
5 4 2 2 6 4 4 3 4 2 4 3 1 1 3 3 3 2 1 1 1 1 3 2 1 1 3 5 8 9 13 18 18 18 17 16 13 8 6 3 5 5 4 3
8 14 8 4 5 4 6 2 2 3 2 2 1 1 2 1 2 3 1 2 1 3 1 1 2 2 5 5 7 8 12 16 16 19 15 12 8 4 4 3 2 1 1 2
6 5 4 3 3 5 4 4 1 1 0 1 1 2 1 1 3 3 2 3 2 1 2 1 1 5 2 4 5 8 9 9 8 8 8 8 5 3 1 1 1 2 4 4
4 3 4 3 2 2 1 2 2 1 2 2 2 2 2 1 3 1 2 1 1 2 2 2 1 3 4 3 3 3 2 4 5 5 4 4 3 2 4 5 6 7 8 9
3 3 3 2 2 2 2 1 2 2 1 1 2 2 2 2 2 2 3 2 1 2 3 1 1 5 4 5 2 3 2 1 3 3 3 3 4 4 6 5 5 7 9 11
3 4 3 1 3 2 1 2 2 1 1 1 2 2 2 1 2 2 3 4 4 2 1 1 3 5 6 5 5 3 2 3 3 3 4 5 6 7 9 11 12 12 15 19
3 2 3 2 3 2 2 1 1 1 2 1 2 3 3 2 2 0 1 3 3 2 3 5 6 6 5 5 5 0 2 5 7 7 10 11 12 13 17 16 20 22 24 23

GFSNW_925_spd_042.txt.gz
Wind_Speed
28 24 44 40 39 32 30 12 9 13 28 8 8 12 12 4 7 5 7 7 7 12 11 8 9 10 3 4 4 5 2 1 4 5 3 1 2 5 8 4 4 1 2 3
29 35 39 43 42 37 22 8 5 6 7 11 8 9 7 6 6 8 9 8 5 6 10 5 5 6 2 3 5 6 6 3 4 4 4 4 7 9 5 4 1 6 3 3
33 36 32 41 40 40 20 10 7 5 5 7 15 13 15 8 2 5 4 5 4 8 6 1 7 7 3 2 2 3 3 3 7 10 2 0 6 11 11 11 4 5 10 12
34 37 36 42 41 40 8 7 8 11 12 14 12 16 14 14 6 3 7 5 8 8 5 6 6 6 5 3 5 3 3 6 4 2 0 3 4 8 13 15 14 8 11 11
35 39 45 46 41 41 5 7 6 5 16 17 13 12 12 17 6 6 7 8 10 7 6 8 10 10 7 5 6 5 2 3 3 3 2 2 7 8 10 15 16 15 19 20
39 39 46 46 43 45 11 6 2 11 4 14 12 11 12 14 11 1 3 11 9 6 4 5 7 7 7 5 7 6 4 5 4 2 2 3 6 15 18 13 12 15 14 16
44 46 50 47 45 48 12 6 5 7 7 12 13 12 9 12 9 7 5 3 4 5 16 17 14 14 12 10 9 2 5 5 1 1 2 3 1 1 3 12 16 15 17 10
47 48 45 44 44 53 8 4 4 4 4 12 11 13 7 9 5 5 6 4 3 15 3 4 4 2 2 5 7 5 1 4 3 2 4 6 12 3 3 3 6 4 12 8
47 44 42 42 41 54 25 9 4 4 8 9 14 11 11 7 6 5 4 6 10 2 2 2 4 4 4 5 4 3 5 3 2 3 3 4 3 4 1 2 5 3 3 4
39 41 41 39 38 51 25 6 5 3 4 4 8 12 11 5 5 5 6 8 3 1 2 2 2 3 1 5 5 4 2 1 4 3 4 6 1 1 2 2 3 1 2 3
38 37 36 34 39 52 16 3 4 2 4 5 1 2 6 5 6 6 8 6 2 2 2 2 3 2 4 3 2 4 5 6 3 3 3 4 5 6 3 4 3 3 3 3
35 33 33 36 46 41 11 4 13 14 7 4 7 9 6 3 3 6 11 1 6 5 3 1 3 3 1 1 3 3 3 3 1 6 1 3 6 6 3 4 7 7 5 3
31 32 34 39 55 32 3 12 14 10 4 4 4 3 5 7 4 1 4 2 4 4 3 4 2 3 4 4 4 3 5 4 3 2 2 5 6 7 8 9 10 10 8 9
29 30 35 42 54 33 7 9 12 10 5 4 3 4 4 10 2 1 1 9 9 7 2 3 3 3 3 3 1 3 2 7 5 4 8 5 4 4 7 9 7 6 4 5
29 33 37 41 45 31 15 18 8 7 1 4 4 4 9 12 9 11 13 15 7 3 3 2 2 3 4 1 0 2 2 1 2 2 5 4 5 10 9 8 8 5 4 7
33 36 38 40 41 29 21 3 7 7 6 4 4 2 4 10 12 16 13 8 5 3 3 3 3 2 1 3 4 3 4 4 4 3 9 6 7 10 10 8 9 11 13 16
37 41 43 40 37 15 4 5 10 11 7 3 4 3 3 7 5 4 5 7 4 3 3 3 3 2 2 2 3 3 5 5 5 6 7 4 12 7 12 15 19 23 23 22
39 37 30 25 21 14 8 14 10 9 3 3 4 3 2 8 3 2 4 2 2 5 3 2 2 2 1 2 4 5 7 5 6 8 9 10 12 14 14 18 19 16 11 11
38 35 29 18 8 4 4 7 11 11 5 3 3 4 3 2 2 1 2 2 3 1 2 2 2 2 2 2 3 6 7 4 3 10 11 12 13 14 13 14 12 11 7 8
12 7 8 4 3 4 3 4 3 5 5 5 3 1 3 1 1 2 2 2 2 2 2 2 2 2 3 2 2 3 6 6 10 11 10 9 10 9 9 10 10 7 4 5
5 4 3 3 6 4 4 3 4 3 3 3 2 3 4 3 2 3 2 2 1 3 2 3 3 3 3 3 4 5 7 8 11 15 15 15 12 8 6 4 5 5 5 5
7 15 10 5 4 3 6 2 1 4 2 1 2 2 3 2 1 3 1 3 1 2 4 2 3 3 7 7 8 9 13 15 15 14 12 9 7 6 6 6 6 6 5 6
8 6 4 3 4 5 2 4 2 3 1 1 2 3 2 2 2 3 2 3 2 4 2 2 2 6 7 8 9 9 10 9 10 9 9 8 9 9 9 7 7 6 6 7
4 4 5 3 2 4 3 2 2 1 2 3 3 2 2 1 2 1 3 2 2 3 4 3 4 8 9 10 8 8 7 6 8 9 8 8 8 9 10 10 10 10 10 10
4 4 4 3 1 3 2 2 2 2 1 1 3 3 2 2 3 1 3 3 3 2 2 3 5 8 11 10 7 8 7 5 7 7 8 8 8 9 10 10 10 10 10 11
4 5 3 1 2 2 2 3 2 2 1 1 2 2 2 2 2 3 3 3 2 3 3 5 8 10 10 9 8 9 8 8 8 8 8 9 10 9 7 6 9 10 9 11
4 3 3 2 4 3 2 2 2 3 2 2 1 2 2 2 2 2 1 1 2 5 6 6 9 10 9 8 9 7 8 9 9 9 9 8 6 6 7 9 12 12 10 11

GFSNW_925_spd_045.txt.gz
Wind_Speed
32 31 29 28 36 35 31 20 11 24 34 11 10 15 20 20 14 10 11 9 13 14 13 12 11 16 11 9 7 11 5 4 7 11 3 5 9 8 9 6 6 3 3 5
32 31 30 29 39 43 29 10 7 18 28 14 14 18 21 21 17 12 13 11 13 12 11 11 12 11 6 5 7 6 6 7 9 7 6 6 8 10 8 7 1 9 4 3
33 31 28 29 44 46 33 9 9 4 8 16 22 23 21 19 17 12 13 15 13 10 12 11 10 9 4 5 5 3 1 12 10 10 8 5 12 12 12 12 8 10 11 13
32 31 30 29 49 47 31 5 13 13 15 20 23 23 18 22 18 11 13 12 15 14 11 14 8 10 7 6 5 6 5 9 13 14 6 8 8 9 10 15 17 15 12 15
32 31 30 33 54 53 21 6 12 14 15 24 22 22 23 24 20 16 15 16 19 16 10 11 11 12 10 8 9 8 5 6 4 5 7 9 11 13 13 14 17 18 18 18
32 34 32 32 43 44 9 17 13 12 15 24 19 19 24 21 20 4 10 19 17 12 2 7 9 6 2 4 8 10 6 4 4 7 3 5 6 15 18 17 17 14 15 16
34 38 40 38 37 45 22 22 6 9 15 19 21 24 22 19 11 11 5 11 11 6 13 14 12 11 9 7 5 3 5 7 1 1 1 1 2 2 5 7 12 14 14 13
34 43 40 44 48 46 37 18 6 3 4 19 22 24 24 15 8 11 12 4 5 16 8 4 5 2 3 3 3 3 3 5 3 3 6 9 12 5 2 2 5 6 8 9
35 48 38 42 51 48 46 13 10 5 9 15 25 19 22 11 11 7 5 10 7 3 2 2 5 5 7 6 7 3 3 3 4 3 3 4 3 4 1 1 5 8 6 4
42 42 42 45 43 48 41 15 6 6 8 9 15 15 16 15 13 6 6 7 4 4 2 2 3 5 3 6 5 5 3 1 6 5 3 6 4 3 2 5 3 6 6 5
41 44 40 43 42 42 40 30 10 9 3 6 2 7 16 9 13 7 11 7 2 3 3 3 3 1 4 2 3 6 7 7 3 3 3 5 7 6 1 5 5 5 6 5
44 43 44 42 40 43 36 15 9 1 1 5 8 10 10 3 3 7 12 3 11 7 5 1 3 2 1 1 3 4 4 4 2 6 1 5 4 4 3 5 8 8 9 9
39 41 40 39 43 39 39 14 7 3 4 5 5 5 6 7 5 3 4 2 4 5 3 4 2 3 4 4 4 3 4 2 3 1 3 3 1 3 6 8 8 9 8 9
41 40 41 39 37 34 36 11 6 1 5 4 4 3 3 7 1 3 1 10 7 8 4 3 3 3 3 3 1 4 3 6 5 5 7 3 8 6 9 9 8 8 5 7
39 38 37 36 36 36 18 8 5 6 3 4 5 9 9 6 5 6 8 13 9 4 3 2 2 3 3 2 1 3 3 1 3 1 5 4 7 9 9 7 8 7 6 10
32 32 34 37 54 35 10 3 1 7 6 4 4 3 6 9 12 12 9 6 4 3 4 3 3 2 2 4 4 4 4 2 3 2 5 5 6 10 11 11 11 13 15 16
35 37 39 44 56 17 1 1 5 8 8 3 3 4 3 2 5 3 5 7 4 3 3 3 2 3 2 2 3 6 2 2 3 4 4 7 11 7 12 14 16 20 21 20
34 36 37 36 34 9 4 4 10 5 3 0 4 3 3 5 2 3 4 3 2 5 3 2 2 3 0 3 5 3 4 4 5 7 10 12 12 12 12 17 16 13 11 11
40 42 41 27 4 3 5 13 19 11 3 1 2 6 4 2 3 2 2 2 3 0 2 2 3 2 2 4 4 4 4 2 7 9 10 10 12 13 12 12 10 10 7 7
42 32 7 4 3 14 9 3 3 3 2 4 3 1 4 0 2 2 2 2 3 2 1 4 1 2 4 4 4 3 1 8 10 11 9 10 11 10 10 9 7 9 10 8
6 3 3 5 5 3 3 3 2 2 3 3 3 3 5 3 2 3 2 3 2 3 3 4 4 3 4 5 4 3 8 8 5 11 13 13 11 9 7 7 7 7 7 8
6 15 10 5 2 4 5 1 1 4 2 1 2 3 3 2 1 3 2 3 2 3 5 2 3 3 10 8 8 11 13 17 17 17 13 11 9 8 8 7 8 7 7 8
7 5 5 1 3 5 2 4 2 3 2 2 2 3 2 3 3 3 2 3 2 5 2 2 2 9 8 11 11 11 14 14 13 12 11 11 11 10 8 9 8 5 7 7
6 4 5 4 3 4 3 3 3 2 1 4 4 3 3 1 3 1 3 2 3 4 4 3 4 8 10 11 11 11 11 6 9 11 10 10 10 11 12 13 9 9 8 8
4 4 4 4 2 3 2 2 2 3 2 1 4 3 2 3 3 2 3 3 3 3 0 3 6 10 11 11 11 10 9 6 8 10 10 9 9 9 9 8 8 8 9 10
5 6 3 2 2 3 3 3 3 3 1 1 2 3 2 3 2 3 2 3 2 3 3 5 9 9 9 10 9 11 11 10 10 10 10 10 9 7 6 6 8 8 6 8
3 3 3 2 4 3 2 2 2 4 2 2 2 3 4 2 2 3 2 2 3 5 6 6 7 9 11 11 12 11 11 10 10 9 8 8 7 6 5 4 7 9 7 9

GFSNW_925_spd_048.txt.gz
Wind_Speed
42 40 37 34 30 30 34 7 8 30 37 10 10 15 21 22 23 12 11 15 15 13 14 14 16 15 13 9 7 8 12 5 4 10 2 5 10 11 8 3 6 3 0 5
45 41 39 37 33 38 20 6 6 30 28 12 13 16 24 25 23 19 15 15 12 13 14 12 14 9 5 6 7 3 4 4 5 9 7 8 8 12 9 8 2 5 3 3
45 44 42 39 36 41 21 6 8 4 10 11 21 23 21 25 23 20 14 14 15 13 13 9 9 9 4 2 1 3 4 5 9 6 11 4 6 10 11 10 3 4 9 13
46 45 43 41 38 42 23 3 10 9 10 16 17 20 20 26 25 20 15 17 17 13 10 11 11 11 6 4 3 1 3 8 12 14 14 12 8 13 7 10 10 10 11 15
46 47 42 41 40 40 21 6 7 12 7 19 22 21 26 26 26 19 21 14 18 16 12 13 10 11 8 7 7 8 5 6 5 8 10 13 10 14 15 14 15 15 14 14
46 46 43 41 40 43 9 23 8 3 13 21 20 23 24 26 23 19 22 16 14 15 9 4 7 3 12 8 11 10 7 3 2 2 6 7 5 10 15 16 15 11 12 10
41 40 40 42 38 49 21 25 4 4 10 18 24 24 24 26 22 18 14 9 18 7 12 12 12 11 8 5 3 8 6 5 2 1 1 1 9 3 5 5 8 9 10 10
38 38 37 38 36 50 26 25 5 4 6 18 23 27 21 21 17 9 11 6 6 14 9 5 4 2 3 1 4 4 4 5 2 2 4 7 12 2 2 1 3 11 9 9
35 34 36 37 39 39 37 26 15 6 5 16 29 25 21 14 9 4 1 6 8 5 3 3 4 4 6 7 7 1 2 5 3 3 3 5 1 6 2 2 2 8 8 7
35 35 36 38 34 40 33 18 28 11 3 9 24 19 16 20 10 4 8 4 4 3 3 2 2 3 4 5 6 4 2 1 4 3 2 5 3 6 1 3 3 6 7 7
34 35 36 40 39 33 38 30 34 10 3 14 20 17 12 13 13 7 7 8 2 3 3 3 2 2 3 2 8 7 7 6 3 2 2 6 7 6 2 4 5 7 6 7
35 36 34 39 38 37 35 18 31 27 10 3 13 13 17 10 8 10 13 3 9 5 4 2 3 2 2 2 3 10 4 5 4 7 4 5 5 8 6 6 6 7 7 7
34 32 35 41 37 40 38 27 18 17 3 4 4 9 9 10 7 8 4 2 6 5 3 3 2 3 3 3 3 2 5 4 2 2 4 8 7 12 10 9 7 7 7 8
34 40 44 41 39 38 35 27 20 11 2 2 5 3 4 8 5 8 5 6 8 6 5 3 3 3 4 3 2 3 2 7 5 5 3 11 12 11 7 6 8 7 10 10
38 38 37 39 36 26 24 21 19 19 5 4 3 5 10 4 4 5 4 9 8 3 3 3 2 2 3 2 1 1 4 0 3 1 6 6 9 8 8 9 10 11 13 15
43 44 38 30 27 25 21 4 23 16 9 3 3 3 4 5 9 9 7 5 4 3 3 2 3 3 0 3 3 6 8 8 6 4 6 11 12 13 14 13 13 14 13 14
33 34 34 33 31 34 4 1 2 6 3 3 3 3 1 4 9 4 4 6 4 3 3 2 3 2 3 3 2 10 7 6 8 5 5 7 7 8 12 14 16 17 17 16
38 37 35 34 43 9 7 7 10 5 5 3 3 1 3 5 2 2 4 2 3 4 3 2 2 3 1 2 9 10 6 8 8 10 12 14 14 15 12 14 14 13 11 10
36 34 37 27 2 3 5 9 15 13 8 2 2 3 4 2 3 1 2 1 3 1 2 2 3 2 2 6 9 8 3 6 11 10 10 11 13 13 12 12 11 9 7 9
43 44 8 2 2 17 15 3 1 3 3 4 1 2 2 1 2 2 2 1 3 2 2 3 2 2 6 5 6 5 5 10 11 12 11 11 12 11 10 9 10 12 11 12
18 3 3 11 18 3 3 3 2 2 2 1 1 3 3 3 3 3 1 2 1 2 2 3 3 3 5 6 6 6 10 10 6 11 12 12 11 8 9 10 12 12 13 11
8 18 12 6 1 3 4 2 1 1 2 0 1 3 3 1 1 3 1 3 2 3 5 2 3 3 10 8 7 8 9 12 13 17 13 13 12 12 13 12 11 13 13 12
14 7 4 2 4 5 2 4 2 3 2 1 2 3 2 2 3 3 2 3 3 5 2 2 2 8 8 8 10 11 14 15 16 15 16 16 15 15 14 13 10 13 14 12
4 4 5 3 2 3 3 3 3 1 1 4 3 2 2 2 3 2 4 2 2 3 4 3 4 9 9 9 10 11 11 7 11 14 15 15 15 15 17 15 13 13 11 9
4 3 4 3 0 2 1 1 2 3 2 0 2 3 3 3 3 2 3 3 4 3 1 2 6 9 10 11 10 11 7 7 10 13 12 14 15 13 13 12 11 10 11 11
4 6 3 0 2 2 3 3 2 4 3 2 1 3 3 3 2 2 1 4 2 2 2 4 8 8 8 10 10 10 12 12 15 14 13 12 13 11 11 11 10 7 11 11
4 4 3 2 4 4 2 3 3 5 2 2 1 4 4 1 2 2 3 3 2 4 4 4 7 10 10 10 12 14 14 14 14 14 13 12 11 10 8 7 9 8 7 9

GFSNW_925_spd_054.txt.gz
Wind_Speed
40 41 42 41 40 35 30 10 7 24 35 7 4 15 14 9 21 9 8 4 7 4 8 8 9 10 9 6 8 9 7 5 4 9 3 4 4 5 5 5 4 1 4 5
38 38 38 41 42 43 27 5 5 22 29 12 11 7 20 13 13 6 4 4 5 3 4 3 7 7 1 2 6 9 8 1 2 8 6 4 3 5 5 4 4 6 5 6
44 37 46 36 44 46 30 5 8 5 9 9 19 17 13 20 16 18 10 10 5 5 2 4 1 3 2 2 3 5 7 5 7 8 7 4 3 4 4 6 3 4 6 6
46 42 41 37 42 50 34 4 7 8 13 16 15 17 13 17 12 13 9 9 16 10 5 3 6 3 2 2 6 3 4 5 4 5 3 3 1 0 1 4 4 5 7 6
46 41 41 48 40 51 30 6 5 6 3 16 17 18 21 24 20 9 16 16 13 6 7 7 5 7 4 5 2 5 2 3 2 3 3 3 3 3 4 5 3 4 4 5
48 47 46 51 46 49 12 9 5 7 12 17 17 19 19 22 21 13 19 14 15 12 11 8 8 7 11 10 10 7 6 6 3 4 3 3 5 6 6 5 3 5 5 4
48 46 46 48 47 54 12 22 3 6 5 13 19 21 15 21 21 21 13 19 10 6 6 3 4 9 8 8 2 6 6 6 3 3 3 2 7 5 3 9 4 6 9 5
45 42 45 50 46 53 34 21 6 3 10 11 12 18 23 10 19 15 17 11 4 6 4 4 4 5 5 3 6 5 6 5 3 4 3 4 5 4 6 5 1 4 7 7
42 45 41 40 41 27 47 18 5 3 4 9 13 13 15 16 12 12 6 2 3 3 3 3 5 4 5 4 3 4 8 6 5 3 4 7 7 3 5 5 1 3 6 5
43 36 34 31 37 31 46 15 16 4 1 3 11 13 12 11 7 3 4 6 2 4 3 3 3 3 7 6 9 5 4 3 5 2 3 7 7 6 3 6 6 5 6 5
42 40 37 31 36 39 39 33 9 5 2 4 3 5 4 11 15 11 3 5 2 3 4 3 1 3 5 4 6 6 7 7 3 3 3 6 4 4 7 5 4 7 5 4
40 37 29 35 40 43 37 14 20 2 3 3 7 18 23 11 10 7 4 5 6 5 4 2 3 3 1 5 3 2 1 7 6 8 5 3 2 5 5 6 8 4 7 4
38 35 41 35 41 42 31 10 14 11 4 4 2 6 14 18 18 26 5 3 5 4 4 4 3 5 2 4 4 4 1 4 4 6 2 2 5 5 6 6 10 6 4 5
39 39 37 36 36 36 32 16 17 13 3 1 5 10 9 14 10 33 19 11 4 6 4 3 3 4 4 4 5 5 5 6 7 4 3 5 6 5 10 11 11 13 12 12
34 33 32 32 31 31 26 16 20 22 2 2 5 10 5 10 3 12 19 12 6 3 3 3 2 2 4 1 3 1 3 7 5 5 12 5 4 5 8 12 10 10 15 13
29 30 31 31 30 28 19 3 17 22 7 2 3 3 4 8 11 9 7 6 4 3 3 2 1 0 2 4 2 3 2 1 5 6 8 14 13 10 9 14 12 12 13 15
27 26 27 26 26 29 6 3 4 32 15 2 4 4 3 3 4 2 3 5 4 3 2 3 2 4 2 2 3 5 5 11 16 19 18 11 1 8 11 15 17 21 19 18
25 26 25 22 27 21 15 7 14 33 11 2 2 3 2 5 2 3 3 3 4 3 2 2 1 1 1 2 3 10 11 14 11 7 9 13 16 15 13 18 18 14 11 11
28 23 25 22 10 7 9 9 19 21 6 4 1 4 2 3 2 2 3 3 3 2 3 1 3 2 2 2 8 12 11 7 13 14 18 15 16 15 12 12 10 13 10 11
29 16 6 3 12 17 19 5 3 2 2 1 3 1 2 3 2 2 3 1 2 2 2 2 3 1 3 3 5 8 14 18 18 18 10 14 14 13 11 10 8 10 12 14
14 6 3 11 22 5 1 4 3 2 2 3 1 2 4 2 4 2 1 2 1 3 2 4 2 2 3 3 8 9 12 11 6 11 13 14 14 13 13 12 15 17 16 14
6 15 16 8 3 2 4 2 0 1 3 1 2 1 3 2 2 3 2 2 3 2 2 3 2 1 6 8 9 9 10 14 13 18 14 18 19 20 19 18 17 16 17 19
9 6 4 2 1 3 3 4 2 3 2 1 1 2 2 2 4 3 3 3 1 1 3 2 1 4 6 9 9 10 13 18 18 17 22 24 21 21 23 20 18 21 20 18
4 3 4 3 3 3 2 1 2 2 2 4 3 3 3 2 4 2 4 1 2 3 1 3 2 6 8 9 10 15 13 13 15 15 20 21 21 19 19 21 23 22 18 15
5 4 5 4 1 1 2 1 2 3 1 2 3 3 3 3 3 2 3 2 2 3 3 2 4 8 10 11 12 13 12 12 12 17 18 18 20 19 18 19 19 20 20 17
4 6 3 2 2 4 4 4 3 4 2 1 3 3 3 3 3 2 2 4 2 1 1 2 9 10 10 11 11 10 15 16 17 17 19 19 18 18 18 19 18 17 17 16
4 3 3 2 4 3 2 2 3 3 2 3 3 4 2 1 3 3 3 2 1 1 2 4 9 11 13 11 13 15 17 16 17 18 18 18 19 22 18 14 13 14 15 15

GFSNW_925_spd_060.txt.gz
Wind_Speed
52 47 44 43 43 36 34 9 8 13 39 12 7 14 8 8 14 2 3 3 4 5 7 6 7 10 8 9 11 9 6 5 5 9 1 4 5 8 6 4 4 1 3 6
54 51 47 45 45 43 32 5 6 28 30 13 17 11 11 4 8 6 4 4 4 2 3 5 6 7 5 9 8 9 8 1 1 7 5 3 3 4 4 5 3 7 5 6
57 53 51 49 48 48 36 5 8 5 11 17 19 19 14 21 5 9 1 4 3 2 2 4 5 7 2 7 7 7 7 4 7 9 8 5 4 6 6 6 4 4 6 6
60 55 53 52 58 49 40 6 7 6 12 18 19 21 15 19 17 11 8 4 5 2 2 2 4 2 2 2 5 5 6 8 6 5 4 6 6 5 8 7 6 7 7 8
62 60 57 56 58 55 33 5 5 3 8 19 23 15 23 25 21 8 10 7 6 6 4 4 4 2 1 4 5 7 2 5 4 4 1 0 3 7 8 5 3 5 5 6
64 61 57 57 58 50 9 10 4 3 10 19 18 25 23 21 18 19 6 18 13 6 15 9 3 3 3 4 2 6 8 7 4 4 2 4 5 8 9 7 6 8 8 11
64 61 59 59 58 58 17 8 6 5 6 12 23 23 20 22 21 9 20 13 4 5 3 1 1 4 3 6 3 5 6 6 3 4 2 1 7 1 4 8 5 5 4 2
64 60 58 59 60 53 30 19 2 4 4 12 12 17 23 16 14 15 7 9 11 3 5 2 1 4 5 1 4 3 2 5 3 5 4 4 4 4 7 8 9 7 6 7
61 61 61 57 54 52 46 22 7 2 2 9 11 17 17 17 12 7 9 8 4 5 3 2 4 5 5 5 2 4 4 6 4 3 5 8 8 4 5 4 6 7 8 10
59 59 59 57 50 51 43 25 18 3 1 3 11 14 15 14 7 3 5 9 4 6 3 2 4 5 6 5 9 6 3 3 5 2 3 7 7 3 5 5 8 7 11 12
57 58 54 49 47 47 37 27 20 11 2 4 4 2 8 8 13 6 3 7 1 3 5 4 4 3 6 4 4 6 7 7 3 3 2 6 8 4 9 7 0 6 7 7
55 51 46 43 44 47 31 11 34 22 2 3 4 7 5 22 18 10 3 5 6 6 4 2 3 1 1 4 4 2 3 5 6 9 7 3 6 4 2 4 5 7 8 6
48 47 42 40 45 45 30 24 22 3 2 3 2 4 4 8 11 22 5 3 3 2 3 4 3 3 4 4 5 3 4 4 3 2 4 5 4 2 2 2 4 5 5 12
42 40 38 39 44 45 30 25 33 3 3 2 4 5 3 5 10 12 9 4 5 5 3 2 3 3 3 3 4 5 4 7 6 3 4 6 6 4 4 5 6 10 9 7
39 40 38 39 41 42 32 28 20 24 2 2 3 6 1 3 7 12 14 8 4 2 3 2 3 2 4 0 1 2 5 8 6 9 9 6 5 9 8 8 6 7 15 10
41 41 39 39 40 40 21 5 21 28 17 3 4 4 1 2 6 7 6 6 3 3 4 3 2 1 3 4 4 5 5 3 1 2 7 4 8 7 4 9 7 8 9 12
40 40 38 38 40 34 8 4 19 24 17 2 4 5 2 2 3 1 1 2 2 3 3 2 3 1 3 2 3 3 5 4 4 11 11 6 4 6 8 13 14 19 19 18
33 33 30 31 37 27 8 15 35 33 8 1 2 3 4 4 2 1 2 2 2 3 3 2 3 2 2 3 1 4 4 8 8 7 6 6 14 14 13 15 17 15 13 13
29 37 36 33 13 2 3 29 35 18 6 5 2 2 3 3 2 2 3 2 2 1 2 2 3 2 5 5 3 6 5 1 9 9 11 11 16 13 12 13 12 17 14 13
47 39 6 3 4 25 37 8 2 2 1 2 3 2 1 2 2 2 3 3 2 2 2 3 2 3 2 5 6 10 9 11 14 15 9 12 12 12 11 10 10 13 13 16
2 3 3 17 27 4 3 3 3 2 2 2 3 6 3 0 3 2 2 3 0 3 2 4 1 3 3 6 5 7 13 10 3 4 4 7 18 16 14 12 11 15 15 17
5 15 23 10 3 2 4 3 2 4 5 3 3 3 3 2 3 3 1 2 1 3 3 3 2 2 3 6 8 9 8 8 9 10 14 14 15 18 15 14 14 16 18 21
6 5 3 2 1 3 6 7 3 2 3 3 2 1 3 2 2 4 2 1 1 2 1 1 2 3 5 8 9 11 10 12 14 15 19 21 21 22 21 17 18 21 18 19
2 4 5 1 2 1 0 2 3 1 1 3 3 2 2 2 3 2 3 1 2 2 1 2 1 5 7 8 9 13 11 11 13 13 17 18 19 19 19 20 21 22 18 18
2 2 3 3 1 1 2 2 2 1 2 2 3 2 2 2 4 2 2 2 2 2 1 2 2 6 8 9 9 10 10 10 11 14 14 17 20 21 19 18 19 21 23 21
2 6 3 3 3 4 3 3 2 4 1 0 3 3 3 4 2 3 4 2 3 2 2 1 5 8 8 10 10 10 11 12 14 16 18 19 19 18 18 18 19 19 20 20
4 4 5 4 3 5 3 4 4 4 2 2 2 4 4 2 3 3 4 3 3 3 2 4 6 9 9 10 11 12 15 16 17 19 19 19 19 22 20 17 14 15 16 16